Tracking 27423 objects as of 9-Jun-2023
HD Live streaming from Space Station
objects crossing your sky now

CHINASAT 5A (CHINASTAR1)

Track CHINASAT 5A (CHINASTAR1) now!
CHINASAT 5A (CHINASTAR1) is classified as:


NORAD ID: 25354
Int'l Code: 1998-033A
Perigee: 36,133.8 km
Apogee: 36,178.5 km
Inclination: 6.3 °
Period: 1,454.7 minutes
Semi major axis: 42527 km
RCS: 0.003 m2 (small)
Launch date: May 30, 1998
Source: People's Republic of China (PRC)
Launch site: Xichang Space Center, China (XSC)

24 C-band, 24 Ku-band; voice and video communications throughout China and neighboring countries.
Your satellite tracking list
Your tracking list is empty




NASA's NSSDC Master Catalog

Two Line Element Set (TLE):
1 25354U 98033A   23159.01445935 -.00000012  00000-0  00000-0 0  9997
2 25354   6.2530  72.1411 0005254  47.0399 173.0030  0.98992826 34993
Source of the keplerian elements: AFSPC